sat.trackr.live / text

‹ back to catalog

STARLINK-31226

NORAD 58858 · 2024-019F

PAYLOAD ACTIVE UNKNOWN

§ Identity

Operator
Country
US
Launch date
2024-01-29
Launch site
AFETR
Launch vehicle
Mass (kg)
RCS (m²)

Purposes: comms

External: N2YO · Heavens-Above · Gunter

§ Orbital elements

Epoch: 2026-05-25T03:28:34.016160Z

Period
94.27 min
Inclination
43.0029°
Eccentricity
0.0001528
Mean motion
15.27570048 rev/d
Perigee alt
482.0 km
Apogee alt
484.1 km
Semi-major
6,861.2 km
B*
3.6404e-5
RAAN
177.2885°
Arg perigee
288.8263°
Mean anomaly
71.2423°
Rev number
13,077

§ Raw data

STARLINK-312261 58858U 24019F   26145.14483815  .00000739  00000+0  36404-4 0  99912 58858  43.0029 177.2885 0001528 288.8263  71.2423 15.27570048130771

JSON: /api/v1/satellites/58858 · /tle

For live sub-satellite position, see the globe view (requires WebGL).

§ Visibility from observer

Set your observer location to see the next 7 days of passes ≥ 10°. The values pass through the URL so the page stays shareable.

No JS? Fill the form by hand. The geolocation button needs JavaScript.